Satellite-Ground Cal/Val Region Overpasses Predictions

Prediction of Satellite NPP Overpassing Cal/Val Region: PacNW

Region Location: (Latitude: 10.00, Longitude: 139.50) to (Latitude: 22.70, Longitude: 165.60).

Table of predicted overpasses for the next 14.0 days since TLE Epoch: 9/4/2012
Interval Starting Time Starting Location Ending Time Ending Location
1 09/05/2012 02:24:38 ( 10.02, 163.07) 09/05/2012 02:28:14 ( 22.70, 160.06)
2 09/05/2012 14:56:31 ( 22.69, 160.30) 09/05/2012 15:00:07 ( 10.00, 157.29)
3 09/06/2012 02:08:19 ( 19.57, 165.59) 09/06/2012 02:09:12 ( 22.68, 164.82)
4 09/06/2012 03:47:06 ( 10.01, 142.46) 09/06/2012 03:50:38 ( 22.45, 139.50)
5 09/06/2012 14:37:30 ( 22.64, 165.05) 09/06/2012 14:41:05 ( 10.02, 162.05)
6 09/06/2012 16:18:59 ( 22.70, 139.69) 09/06/2012 16:19:11 ( 21.99, 139.51)
7 09/07/2012 03:28:04 ( 10.05, 147.21) 09/07/2012 03:31:39 ( 22.67, 144.21)
8 09/07/2012 15:59:57 ( 22.65, 144.43) 09/07/2012 16:03:32 ( 10.03, 141.43)
9 09/08/2012 03:09:02 ( 10.03, 151.97) 09/08/2012 03:12:37 ( 22.65, 148.97)
10 09/08/2012 15:40:55 ( 22.67, 149.20) 09/08/2012 15:44:30 ( 10.05, 146.20)
11 09/09/2012 02:50:00 ( 10.02, 156.73) 09/09/2012 02:53:36 ( 22.70, 153.71)
12 09/09/2012 15:21:52 ( 22.69, 153.96) 09/09/2012 15:25:28 ( 10.00, 150.94)
13 09/10/2012 02:30:58 ( 10.06, 161.48) 09/10/2012 02:34:33 ( 22.68, 158.48)
14 09/10/2012 15:02:51 ( 22.64, 158.71) 09/10/2012 15:06:26 ( 10.02, 155.71)
15 09/11/2012 02:12:44 ( 12.86, 165.59) 09/11/2012 02:15:31 ( 22.66, 163.24)
16 09/11/2012 03:53:26 ( 10.05, 140.86) 09/11/2012 03:55:06 ( 15.92, 139.50)
17 09/11/2012 14:43:48 ( 22.66, 163.47) 09/11/2012 14:47:23 ( 10.04, 160.47)
18 09/12/2012 03:34:23 ( 10.03, 145.62) 09/12/2012 03:37:58 ( 22.65, 142.62)
19 09/12/2012 14:27:54 ( 11.64, 165.59) 09/12/2012 14:28:21 ( 10.05, 165.23)
20 09/12/2012 16:06:16 ( 22.67, 142.85) 09/12/2012 16:09:51 ( 10.05, 139.85)
21 09/13/2012 03:15:21 ( 10.02, 150.39) 09/13/2012 03:18:57 ( 22.70, 147.37)
22 09/13/2012 15:47:13 ( 22.68, 147.62) 09/13/2012 15:50:49 ( 10.00, 144.60)
23
